Printer-friendly version

IAU Minor Planet Center

Minor Planet Center

MPEC 2004-L15 : 2004 LC

The following Minor Planet Electronic Circular may be linked-to from your own Web pages, but must not otherwise be redistributed electronically.


Read MPEC 2004-L14 Read MPEC 2004-L16


M.P.E.C. 2004-L15                                Issued 2004 June  9, 10:13 UT

     The Minor Planet Electronic Circulars contain information on unusual
         minor planets and routine data on comets.  They are published
   on behalf of Commission 20 of the International Astronomical Union by the
          Minor Planet Center, Smithsonian Astrophysical Observatory,
                          Cambridge, MA 02138, U.S.A.

         Supported in part by the Steven and Michele Kirsch Foundation
             Prepared using the Tamkin Foundation Computer Network

                              MPC@CFA.HARVARD.EDU
          URL http://cfa-www.harvard.edu/iau/mpc.html  ISSN 1523-6714

                                    2004 LC

Observations:
     K04L00C* C2004 06 08.26415 15 52 56.65 +31 30 13.3          18.2   EL015704
     K04L00C  C2004 06 08.27374 15 53 24.80 +31 26 42.3          18.5   EL015704
     K04L00C  C2004 06 08.28333 15 53 52.79 +31 23 11.2          18.7   EL015704
     K04L00C  C2004 06 08.29282 15 54 20.43 +31 19 42.5          18.5   EL015704
     K04L00C  C2004 06 08.30228 15 54 47.85 +31 16 13.1          18.6   EL015704
     K04L00C  C2004 06 08.89735 16 21 44.24 +27 44 51.7                 EL015246
     K04L00C  C2004 06 08.89808 16 21 45.94 +27 44 37.1                 EL015246
     K04L00C  C2004 06 08.89853 16 21 47.11 +27 44 27.0                 EL015246
     K04L00C  C2004 06 08.89900 16 21 48.17 +27 44 17.0                 EL015246
     K04L00C  C2004 06 08.89955 16 21 49.26 +27 44 07.5                 EL015246
     K04L00C  C2004 06 08.90085 16 21 52.47 +27 43 40.1                 EL015246
     K04L00C  C2004 06 08.90086 16 21 56.35 +27 44 22.5          17.8 R EL015620
     K04L00C  C2004 06 08.90150 16 21 53.93 +27 43 26.0                 EL015246
     K04L00C  C2004 06 08.90277 16 22 00.74 +27 43 43.5          18.0 R EL015620
     K04L00C  C2004 06 08.90959 16 22 13.99 +27 40 35.8          18.2 V EL015611
     K04L00C  C2004 06 08.91112 16 22 17.48 +27 40 05.8                 EL015611
     K04L00C  C2004 06 08.91264 16 22 20.94 +27 39 35.2                 EL015611
     K04L00C  C2004 06 08.92097 16 22 37.77 +27 36 53.2                 EL015118
     K04L00C  C2004 06 08.92331 16 22 43.20 +27 36 04.1                 EL015118
     K04L00C  C2004 06 08.93510 16 23 09.74 +27 32 07.6                 EL015118
     K04L00C  C2004 06 08.93747 16 23 15.14 +27 31 18.5                 EL015118
     K04L00C  C2004 06 08.93863 16 23 17.76 +27 30 55.0                 EL015118
     K04L00C  C2004 06 08.98450 16 25 01.46 +27 15 16.2                 EL015557
     K04L00C  C2004 06 08.98501 16 25 02.64 +27 15 06.3                 EL015557
     K04L00C  C2004 06 08.98527 16 25 03.18 +27 15 00.8                 EL015557
     K04L00C  C2004 06 08.98552 16 25 03.79 +27 14 55.5                 EL015557
     K04L00C  C2004 06 08.98579 16 25 04.38 +27 14 50.2                 EL015557
     K04L00C  C2004 06 08.98604 16 25 04.95 +27 14 44.5                 EL015557
     K04L00C  C2004 06 08.98705 16 25 07.19 +27 14 23.6                 EL015557
     K04L00C  C2004 06 09.16563 16 32 04.98 +26 16 36.3          17.9 R EL015G90
     K04L00C  C2004 06 09.16632 16 32 06.37 +26 16 23.8          17.8 R EL015G90
     K04L00C  C2004 06 09.16701 16 32 07.82 +26 16 10.4          18.0 R EL015G90
     K04L00C  C2004 06 09.17875 16 32 32.03 +26 12 33.9          18.1 R EL015926
     K04L00C  C2004 06 09.17906 16 32 32.67 +26 12 27.5          17.7 R EL015926
     K04L00C  C2004 06 09.17937 16 32 33.39 +26 12 21.6          18.0 R EL015926
     K04L00C  C2004 06 09.19086 16 32 56.80 +26 08 39.0          19.7 R EL015854
     K04L00C  C2004 06 09.19392 16 33 02.87 +26 07 41.2          19.5 R EL015854

Observer details:
118 Modra.  Observers J. Vilagi, L. Kornos.  0.6-m f/5.5 reflector + CCD.
246 Klet Observatory-KLENOT.  Observer M. Kocer.  1.06-m KLENOT Telescope
    + CCD.
557 Ondrejov.  Observer P. Kusnirak.  0.65-m f/3.6 reflector + CCD.
611 Starkenburg.  Observer F. Hormuth.  0.45-m f/4.4 reflector + CCD.
620 Observatorio Astronomico de Mallorca.  Observers S. Sanchez, R. Stoss,
    J. Nomen.  0.30-m f/9 Schmidt-Cassegrain + CCD.
704 Lincoln Laboratory ETS, New Mexico.  Observers M. Blythe, F. Shelly,
    M. Bezpalko, R. Huber, L. Manguso, D. Torres, R. Kracke, M. McCleary,
    H. Stange, A. Milner.  Measurers J. Stuart, R. Sayer, J. Evans, J. Kommers.
    1.0-m f/2.15 reflector + CCD.
854 Sabino Canyon Observatory, Tucson.  Observer J. E. McGaha.  0.356-m f/10.0
    Schmidt-Cassegrain + CCD.
926 Tenagra II Observatory.  Observers P. R. Holvorcem, M. Schwartz.  0.81-m
    f/7 Ritchey-Chretien + CCD.
G90 Three Buttes Observatory, Tucson.  Observer G. R. Jones.  0.4-m
    Ritchey-Chretien + CCD.

Orbital elements:
2004 LC
Epoch 2004 June 4.0 TT = JDT 2453160.5                  MPC
M   9.27800              (2000.0)            P               Q
n   0.32382073     Peri.  330.04310     -0.81317141     +0.57605973
a   2.1002272      Node   245.36234     -0.51418953     -0.77793816
e   0.5547407      Incl.    5.24617     -0.27269284     -0.25093306
P   3.04           H   24.4           G   0.15
From 35 observations 2004 June 8-9.

Ephemeris:
2004 LC                  a,e,i = 2.10, 0.55, 5                   q = 0.9351
Date    TT    R. A. (2000) Decl.     Delta      r     Elong.  Phase     V
2004 06 04    10 34.19   +36 48.5    0.026    1.008    73.9   104.6    20.4
2004 06 05    11 39.97   +40 33.0    0.023    1.012    83.8    94.9    19.6
2004 06 06    13 04.93   +41 40.5    0.022    1.017    96.2    82.6    19.0
2004 06 07    14 30.97   +38 43.5    0.022    1.022   109.1    69.7    18.6
2004 06 08    15 38.73   +33 06.9    0.025    1.028   120.3    58.5    18.5
2004 06 09    16 25.68   +27 12.4    0.028    1.033   128.7    50.0    18.6
2004 06 10    16 57.63   +22 08.8    0.032    1.038   134.7    44.1    18.7
2004 06 11    17 19.96   +18 06.3    0.037    1.044   138.8    39.8    18.9
2004 06 12    17 36.14   +14 55.4    0.043    1.050   141.8    36.8    19.2
2004 06 13    17 48.28   +12 24.0    0.049    1.055   144.0    34.5    19.4
2004 06 14    17 57.65   +10 22.1    0.054    1.061   145.7    32.6    19.6
2004 06 15    18 05.08   +08 42.3    0.060    1.067   147.1    31.1    19.8
2004 06 16    18 11.09   +07 19.2    0.067    1.073   148.3    29.8    20.0
2004 06 17    18 16.03   +06 08.8    0.073    1.079   149.4    28.6    20.1
2004 06 18    18 20.15   +05 08.4    0.079    1.085   150.3    27.6    20.3
2004 06 19    18 23.63   +04 15.8    0.085    1.092   151.2    26.6    20.4
2004 06 20    18 26.60   +03 29.5    0.092    1.098   152.0    25.7    20.6
2004 06 21    18 29.17   +02 48.3    0.098    1.105   152.8    24.9    20.7
2004 06 22    18 31.39   +02 11.3    0.105    1.111   153.5    24.1    20.9
2004 06 23    18 33.34   +01 37.7    0.111    1.118   154.2    23.3    21.0
2004 06 24    18 35.06   +01 06.9    0.118    1.124   154.8    22.6    21.1
2004 06 25    18 36.58   +00 38.6    0.125    1.131   155.5    21.9    21.2
2004 06 26    18 37.94   +00 12.4    0.132    1.138   156.1    21.3    21.3
2004 06 27    18 39.16   -00 12.1    0.138    1.145   156.6    20.6    21.4
2004 06 28    18 40.26   -00 35.1    0.145    1.152   157.1    20.1    21.5
2004 06 29    18 41.25   -00 56.7    0.152    1.159   157.6    19.5    21.6
2004 06 30    18 42.16   -01 17.2    0.159    1.166   158.1    19.0    21.7
2004 07 01    18 42.98   -01 36.7    0.166    1.173   158.5    18.5    21.8
2004 07 02    18 43.74   -01 55.3    0.174    1.180   158.9    18.1    21.9
2004 07 03    18 44.44   -02 13.1    0.181    1.187   159.2    17.7    22.0
2004 07 04    18 45.09   -02 30.2    0.188    1.195   159.5    17.3    22.1

Timothy B. Spahr             (C) Copyright 2004 MPC           M.P.E.C. 2004-L15

Read MPEC 2004-L14 Read MPEC 2004-L16


Our Web policy. Index to the CBAT/MPC/ICQ pages.


Valid HTML 4.01!